Location: Newark
(47.5833°N, 8.1500°E)
Time: 09:42:52
(UTC+00:00)

Altair - Pass Details

Date: 01 November 2020
Orbit: 1502 x 1682 km, 47.2° (Epoch: 03 December)

Event Time Altitude Azimuth Distance (km) Brightness Sun altitude
Exits shadow 04:17:58 18° 234° (SW) 3,054 8.6 -19.6°
Maximum altitude 04:25:08 68° 156° (SSE) 1,639 7.7 -18.4°
Drops below altitude 10° 04:34:36 10° 76° (ENE) 3,790 10.7 -16.8°
Sets 04:37:45 0° 74° (ENE) 4,801 11.5 -16.3°
